Weather reports worldwide

Advertisment
Sevilla/San Pablo, Spain (8391): temperature & dewpoint: 18.04.2019 09:00:00 - 24.04.2019 09:00:00 (CEST)Sevilla/San Pablo, Spain (8391): wind speed: 18.04.2019 09:00:00 - 24.04.2019 09:00:00 (CEST)Sevilla/San Pablo, Spain (8391): wind direction: 18.04.2019 09:00:00 - 24.04.2019 09:00:00 (CEST)Sevilla/San Pablo, Spain (8391): reduced air pressure: 18.04.2019 09:00:00 - 24.04.2019 09:00:00 (CEST)Sevilla/San Pablo, Spain (8391): visibility: 18.04.2019 09:00:00 - 24.04.2019 09:00:00 (CEST)
Date & Time tt [°C] td [°C] ff [km/h] ff [kn] dd ppp [hPa] vv [km]
24.04.2019 09:00:00 - - - - - - -
24.04.2019 08:00:00 11,0 9,6 9 5 SSW 1009,1 30
24.04.2019 07:00:00 10,1 9,2 11 6 S 1008,7 -
24.04.2019 06:00:00 9,4 8,5 8 4 SSE 1008,6 -
24.04.2019 05:00:00 8,9 7,8 9 5 SSE 1008,8 20
24.04.2019 04:00:00 10,4 8,0 0 0 N 1008,9 -
24.04.2019 03:00:00 10,5 7,9 8 4 SSW 1009,0 -
24.04.2019 02:00:00 11,4 6,9 9 5 SSW 1008,7 30
24.04.2019 01:00:00 11,4 7,2 16 9 WSW 1008,9 -
24.04.2019 00:00:00 11,8 7,5 15 8 SW 1008,3 -
23.04.2019 23:00:00 11,8 7,9 9 5 W 1007,9 30
23.04.2019 22:00:00 13,4 7,2 13 7 SW 1007,0 -
23.04.2019 21:00:00 13,6 6,7 21 11 WSW 1006,2 -
23.04.2019 20:00:00 15,0 6,6 26 14 W 1005,6 30
23.04.2019 19:00:00 16,3 4,6 28 15 WSW 1005,0 -
23.04.2019 18:00:00 16,5 4,9 31 17 W 1004,4 -
23.04.2019 17:00:00 17,5 2,9 34 18 W 1003,9 30
23.04.2019 16:00:00 17,0 5,2 34 18 W 1003,9 -
23.04.2019 15:00:00 13,7 9,0 24 13 WNW 1004,3 -
23.04.2019 14:00:00 13,5 8,8 11 6 WSW 1004,1 25
23.04.2019 13:00:00 14,6 8,5 16 9 W 1004,1 -
23.04.2019 12:00:00 15,3 6,5 24 13 W 1003,9 -
23.04.2019 11:00:00 13,9 7,7 24 13 W 1003,5 30
23.04.2019 10:00:00 12,9 9,5 18 10 W 1003,0 -
23.04.2019 09:00:00 11,4 9,2 15 8 W 1002,3 -
23.04.2019 08:00:00 11,4 9,6 16 9 WSW 1001,3 25
23.04.2019 07:00:00 11,5 10,6 16 9 W 999,8 -
23.04.2019 06:00:00 12,8 11,9 26 14 W 1000,1 -
23.04.2019 05:00:00 14,3 12,5 18 10 S 999,6 12
23.04.2019 04:00:00 14,6 12,1 22 12 SW 1000,7 -
23.04.2019 03:00:00 15,1 12,0 22 12 SW 1001,9 -
23.04.2019 02:00:00 15,0 11,2 22 12 SW 1002,5 30
23.04.2019 01:00:00 15,1 11,5 22 12 SW 1002,8 -
23.04.2019 00:00:00 15,3 11,9 28 15 SW 1003,1 -
22.04.2019 23:00:00 15,5 12,3 28 15 SW 1002,9 30
22.04.2019 22:00:00 16,0 12,7 28 15 SW 1002,4 -
22.04.2019 21:00:00 17,3 12,6 34 18 SW 1001,9 -
22.04.2019 20:00:00 20,3 9,5 31 17 WSW 1001,5 30
22.04.2019 19:00:00 22,5 8,5 34 18 SW 1001,4 -
22.04.2019 18:00:00 23,9 8,6 29 16 WSW 1001,2 -
22.04.2019 17:00:00 24,9 5,8 26 14 W 1001,4 30
22.04.2019 16:00:00 24,2 7,9 18 10 SW 1002,2 -
22.04.2019 15:00:00 23,3 10,1 13 7 SW 1003,3 -
22.04.2019 14:00:00 22,1 10,7 15 8 WSW 1004,2 30
22.04.2019 13:00:00 20,3 10,0 11 6 SSW 1005,2 -
22.04.2019 12:00:00 18,9 9,9 9 5 SW 1005,9 -
22.04.2019 11:00:00 18,0 10,5 4 2 SSW 1005,8 20
22.04.2019 10:00:00 14,8 10,8 0 0 N 1006,0 -
22.04.2019 09:00:00 12,7 10,1 0 0 N 1005,7 -
22.04.2019 08:00:00 10,9 9,5 9 5 SE 1005,2 30
22.04.2019 07:00:00 10,8 9,1 4 2 SSE 1005,2 -
22.04.2019 06:00:00 12,1 9,6 4 2 WSW 1005,5 -
22.04.2019 05:00:00 13,2 9,8 4 2 WSW 1006,0 30
22.04.2019 04:00:00 14,0 10,2 5 3 NW 1006,3 -
22.04.2019 03:00:00 14,1 10,7 8 4 WNW 1006,8 -
22.04.2019 02:00:00 15,1 9,4 4 2 E 1007,4 30
22.04.2019 01:00:00 15,0 9,5 4 2 ENE 1007,8 -
22.04.2019 00:00:00 15,3 8,8 9 5 E 1008,1 -
21.04.2019 23:00:00 16,6 8,2 13 7 E 1008,0 30
21.04.2019 22:00:00 16,8 10,0 5 3 E 1007,6 -
21.04.2019 21:00:00 17,8 9,8 5 3 ESE 1007,0 -
21.04.2019 20:00:00 19,1 9,0 11 6 E 1006,8 30
21.04.2019 19:00:00 19,1 9,7 15 8 E 1006,7 -
21.04.2019 18:00:00 20,2 9,4 15 8 E 1006,5 -
21.04.2019 17:00:00 20,8 8,6 16 9 ENE 1006,8 30
21.04.2019 16:00:00 20,9 8,7 11 6 E 1007,4 -
21.04.2019 15:00:00 21,1 9,2 15 8 ENE 1007,7 -
21.04.2019 14:00:00 19,8 9,1 15 8 NE 1008,5 30
21.04.2019 13:00:00 18,7 8,3 16 9 NE 1009,3 -
21.04.2019 12:00:00 17,8 8,4 18 10 NE 1009,9 -
21.04.2019 11:00:00 16,8 8,9 15 8 NE 1009,9 30
21.04.2019 10:00:00 15,6 8,9 15 8 NNE 1010,0 -
21.04.2019 09:00:00 13,3 9,6 5 3 N 1010,0 -
21.04.2019 08:00:00 13,4 10,5 5 3 NNE 1009,8 30
21.04.2019 07:00:00 13,5 10,3 5 3 NNE 1009,9 -
21.04.2019 06:00:00 13,7 9,7 8 4 NE 1010,3 -
21.04.2019 05:00:00 14,4 9,0 9 5 E 1010,4 30
21.04.2019 04:00:00 14,8 8,6 13 7 ENE 1011,1 -
21.04.2019 03:00:00 14,5 9,1 13 7 NE 1012,0 -
21.04.2019 02:00:00 14,7 8,6 11 6 NE 1012,5 30
21.04.2019 01:00:00 15,5 9,1 13 7 ENE 1012,9 -
21.04.2019 00:00:00 15,7 9,6 8 4 NE 1013,1 -
20.04.2019 23:00:00 15,9 9,7 13 7 NNE 1013,3 30
20.04.2019 22:00:00 17,1 9,3 21 11 NE 1012,5 -
20.04.2019 21:00:00 18,4 9,2 24 13 NE 1011,7 -
20.04.2019 20:00:00 - - - - - - -
20.04.2019 19:00:00 20,2 9,3 24 13 NE 1010,7 -
20.04.2019 18:00:00 20,6 9,4 24 13 NE 1010,5 -
20.04.2019 17:00:00 20,4 10,0 26 14 ENE 1010,7 30
20.04.2019 16:00:00 20,1 10,7 22 12 ENE 1011,0 -
20.04.2019 15:00:00 18,7 11,7 16 9 NE 1011,5 -
20.04.2019 14:00:00 18,0 11,6 15 8 NE 1011,8 30
20.04.2019 13:00:00 17,0 11,5 15 8 NNE 1012,5 -
20.04.2019 12:00:00 15,2 11,4 8 4 N 1013,0 -
20.04.2019 11:00:00 14,1 11,2 4 2 N 1013,1 30
20.04.2019 10:00:00 12,8 10,4 9 5 NE 1013,4 -
20.04.2019 09:00:00 11,6 9,8 4 2 NNE 1013,4 -
20.04.2019 08:00:00 11,2 9,9 9 5 NNE 1013,0 30
20.04.2019 07:00:00 11,0 9,9 2 1 NNE 1013,2 -
20.04.2019 06:00:00 11,4 10,0 11 6 NE 1013,4 -
20.04.2019 05:00:00 11,3 10,0 11 6 NE 1014,0 20
20.04.2019 04:00:00 11,1 10,2 11 6 NE 1014,2 -
20.04.2019 03:00:00 11,4 10,5 11 6 NNE 1014,8 -
20.04.2019 02:00:00 11,7 10,9 11 6 NNE 1015,3 20
20.04.2019 01:00:00 12,7 11,9 9 5 NE 1015,4 -
20.04.2019 00:00:00 13,0 11,9 11 6 NNE 1015,9 -
19.04.2019 23:00:00 13,7 12,8 9 5 N 1016,4 20
19.04.2019 22:00:00 13,6 12,3 13 7 ESE 1015,6 -
19.04.2019 21:00:00 14,8 10,8 21 11 ESE 1015,0 -
19.04.2019 20:00:00 16,2 11,6 13 7 WSW 1014,2 30
19.04.2019 19:00:00 16,2 11,6 26 14 SW 1013,6 -
19.04.2019 18:00:00 17,7 10,3 24 13 SW 1013,4 -
19.04.2019 17:00:00 20,8 9,3 11 6 NW 1013,1 30
19.04.2019 16:00:00 20,6 8,5 5 3 W 1013,4 -
19.04.2019 15:00:00 21,0 9,1 5 3 WNW 1014,0 -
19.04.2019 14:00:00 18,6 10,0 4 2 E 1014,7 30
19.04.2019 13:00:00 18,8 11,0 8 4 ESE 1015,5 -
19.04.2019 12:00:00 17,4 11,4 4 2 E 1015,7 -
19.04.2019 11:00:00 15,5 11,1 9 5 NE 1015,3 30
19.04.2019 10:00:00 13,8 11,4 4 2 ENE 1015,1 -
19.04.2019 09:00:00 11,0 10,2 4 2 N 1014,9 -
19.04.2019 08:00:00 10,1 9,5 9 5 NNE 1014,8 25
19.04.2019 07:00:00 10,4 9,6 0 0 N 1014,4 -
19.04.2019 06:00:00 11,5 10,7 4 2 ENE 1014,3 -
19.04.2019 05:00:00 11,7 10,6 0 0 N 1014,4 30
19.04.2019 04:00:00 11,8 10,2 0 0 N 1014,7 -
19.04.2019 03:00:00 11,2 9,9 11 6 S 1014,8 -
19.04.2019 02:00:00 11,5 10,2 11 6 S 1015,0 30
19.04.2019 01:00:00 11,5 10,4 4 2 S 1015,3 -
19.04.2019 00:00:00 11,9 10,6 11 6 S 1015,1 -
18.04.2019 23:00:00 11,8 10,5 8 4 SSE 1015,0 30
18.04.2019 22:00:00 13,2 11,1 8 4 SW 1014,4 -
18.04.2019 21:00:00 14,6 12,3 8 4 SW 1013,9 -
18.04.2019 20:00:00 15,1 11,9 9 5 NNW 1013,6 30
18.04.2019 19:00:00 14,5 11,4 5 3 NW 1013,5 -
18.04.2019 18:00:00 12,7 10,7 5 3 NNW 1013,3 -
18.04.2019 17:00:00 12,1 10,2 21 11 W 1013,5 10
18.04.2019 16:00:00 18,3 10,2 15 8 SSW 1012,6 -
18.04.2019 15:00:00 18,3 10,4 11 6 SW 1012,7 -
18.04.2019 14:00:00 - - - - - - -
18.04.2019 13:00:00 17,8 10,0 8 4 NW 1013,7 -
18.04.2019 12:00:00 16,1 12,3 8 4 SSE 1014,0 -
18.04.2019 11:00:00 14,5 11,0 4 2 NNW 1014,0 30
18.04.2019 10:00:00 13,3 12,2 9 5 N 1013,9 -
18.04.2019 09:00:00 12,9 12,1 8 4 WNW 1013,8 -

tt = temperature
td = dewpoint
ff = wind speed
dd = wind direction
ppp = reduced air pressure
vv = visibility

Next stations